Canadian, TX

12:58 AM CST on February 08, 2016 (GMT -0600)
Hemphill County

Weather History for KHHF - November, 2014

Change the Weather History Date:

Monday, November 10, 2014

  Actual Average Record
Temperature  
Mean Temperature 58 °F -  
Max Temperature 85 °F - - ()
Min Temperature 32 °F - - ()
Degree Days  
Heating Degree Days 6    
Growing Degree Days 8 (Base 50)    
Moisture  
Dew Point 30 °F    
Average Humidity 34    
Maximum Humidity 54    
Minimum Humidity 10    
Precipitation  
Precipitation 0.00 in - - ()
Sea Level Pressure  
Sea Level Pressure 29.56 in    
Wind  
Wind Speed 15 mph (West)    
Max Wind Speed 31 mph    
Max Gust Speed 47 mph    
Visibility 10 miles    
Events      
T = Trace of Precipitation, MM = Missing Value Source: NWS Daily Summary

Daily Weather History Graph

Daily Weather History Graph

Search for Another Location

Airport or City:

Trip Planner

Search our weather history database for the weather conditions in past years. The results will help you decide how hot, cold, wet, or windy it might be!

Date:

Astronomy

Nov. 10, 2014 Rise Set
Actual Time 7:12 AM CST 5:37 PM CST
Civil Twilight 6:45 AM CST 6:04 PM CST
Nautical Twilight 6:15 AM CST 6:35 PM CST
Astronomical Twilight 5:45 AM CST 7:05 PM CST
Moon 9:07 PM CST (11/10) 10:35 AM CST (11/10)
Length of Visible Light 11h 18m
Length of Day
10h 24m
Waning Gibbous, 84% of the Moon is Illuminated
Nov 10
Waning Gibbous
Nov 14
Last Quarter
Nov 22
New
Nov 29
First Quarter
Dec 6
Full

Hourly Weather History & Observations

Time (CST) Temp. Windchill Dew Point Humidity Pressure Visibility Wind Dir Wind Speed Gust Speed Precip Events Conditions
12:15 AM 61.9 °F - 37.6 °F 41% 29.57 in 10.0 mi SW 13.8 mph 18.4 mph N/A   Clear
12:35 AM 62.1 °F - 37.4 °F 40% 29.56 in 10.0 mi SW 13.8 mph 20.7 mph N/A   Clear
12:55 AM 61.9 °F - 37.4 °F 40% 29.55 in 10.0 mi SW 15.0 mph 20.7 mph N/A   Clear
1:15 AM 61.9 °F - 37.4 °F 40% 29.55 in 10.0 mi WSW 16.1 mph 24.2 mph N/A   Clear
1:35 AM 61.7 °F - 36.5 °F 39% 29.54 in 10.0 mi WSW 17.3 mph 26.5 mph N/A   Clear
1:55 AM 61.7 °F - 36.1 °F 39% 29.52 in 10.0 mi WSW 15.0 mph 21.9 mph N/A   Clear
2:15 AM 61.2 °F - 36.5 °F 40% 29.51 in 10.0 mi WSW 16.1 mph - N/A   Clear
2:35 AM 60.8 °F - 36.1 °F 40% 29.50 in 10.0 mi WSW 16.1 mph 20.7 mph N/A   Clear
2:55 AM 60.3 °F - 35.6 °F 40% 29.50 in 10.0 mi WSW 13.8 mph - N/A   Clear
3:15 AM 59.9 °F - 35.4 °F 40% 29.49 in 10.0 mi WSW 15.0 mph - N/A   Clear
3:35 AM 59.5 °F - 34.7 °F 39% 29.47 in 10.0 mi SW 15.0 mph 20.7 mph N/A   Clear
3:55 AM 58.6 °F - 34.5 °F 40% 29.47 in 10.0 mi WSW 16.1 mph 20.7 mph N/A   Clear
4:15 AM 58.6 °F - 33.8 °F 39% 29.47 in 10.0 mi WSW 13.8 mph - N/A   Clear
4:35 AM 59.4 °F - 33.3 °F 37% 29.46 in 10.0 mi WSW 11.5 mph 18.4 mph N/A   Clear
4:55 AM 60.1 °F - 32.9 °F 36% 29.45 in 10.0 mi WSW 13.8 mph 20.7 mph N/A   Clear
5:15 AM 60.4 °F - 32.9 °F 36% 29.46 in 10.0 mi WSW 10.4 mph 18.4 mph N/A   Clear
5:35 AM 61.2 °F - 33.3 °F 35% 29.45 in 10.0 mi WSW 12.7 mph 19.6 mph N/A   Clear
5:55 AM 59.9 °F - 33.8 °F 38% 29.45 in 10.0 mi WSW 11.5 mph 17.3 mph N/A   Clear
6:15 AM 58.3 °F - 34.3 °F 41% 29.45 in 10.0 mi WSW 5.8 mph - N/A   Clear
6:35 AM 56.7 °F - 34.9 °F 44% 29.45 in - WSW 10.4 mph - N/A   Clear
6:55 AM 57.4 °F - 35.1 °F 43% 29.45 in - WSW 9.2 mph - N/A   Clear
7:15 AM 57.2 °F - 35.1 °F 43% 29.45 in - WSW 9.2 mph - N/A   Clear
7:35 AM 57.4 °F - 35.4 °F 44% 29.45 in - WSW 10.4 mph - N/A   Clear
7:55 AM 59.2 °F - 34.9 °F 40% 29.45 in - SW 11.5 mph 17.3 mph N/A   Clear
8:15 AM 62.6 °F - 34.5 °F 35% 29.46 in - WSW 10.4 mph - N/A   Clear
8:35 AM 64.4 °F - 34.7 °F 33% 29.47 in - WSW 8.1 mph 16.1 mph N/A   Clear
8:55 AM 66.0 °F - 34.3 °F 31% 29.46 in 10.0 mi WSW 11.5 mph 21.9 mph N/A   Clear
9:15 AM 67.5 °F - 34.2 °F 29% 29.46 in 10.0 mi WSW 16.1 mph 21.9 mph N/A   Clear
9:35 AM 68.5 °F - 33.8 °F 28% 29.46 in - WSW 16.1 mph 24.2 mph N/A   Clear
9:55 AM 70.0 °F - 33.1 °F 26% 29.46 in - WSW 9.2 mph 23.0 mph N/A   Clear
10:15 AM 72.1 °F - 33.1 °F 24% 29.47 in - West 10.4 mph - N/A   Clear
10:35 AM 73.4 °F - 31.8 °F 22% 29.47 in - West 15.0 mph 23.0 mph N/A   Clear
10:55 AM 74.3 °F - 32.0 °F 21% 29.46 in 10.0 mi West 12.7 mph 21.9 mph N/A   Clear
11:15 AM 76.1 °F - 30.9 °F 19% 29.45 in - West 11.5 mph 17.3 mph N/A   Clear
11:35 AM 77.7 °F - 29.7 °F 17% 29.45 in 10.0 mi WSW 11.5 mph - N/A   Clear
11:55 AM 79.2 °F - 29.5 °F 16% 29.44 in 10.0 mi West 12.7 mph 20.7 mph N/A   Clear
12:15 PM 79.9 °F - 29.1 °F 16% 29.44 in - West 10.4 mph - N/A   Clear
12:35 PM 81.3 °F - 28.8 °F 15% 29.43 in - West 11.5 mph 16.1 mph N/A   Clear
12:55 PM 81.9 °F - 28.6 °F 14% 29.43 in 10.0 mi West 13.8 mph 17.3 mph N/A   Clear
1:15 PM 83.3 °F - 27.7 °F 13% 29.42 in 10.0 mi West 11.5 mph - N/A   Clear
1:35 PM 84.2 °F - 27.1 °F 13% 29.41 in - West 9.2 mph - N/A   Clear
1:55 PM 84.6 °F - 26.4 °F 12% 29.40 in - West 8.1 mph - N/A   Clear
2:15 PM 85.3 °F - 25.5 °F 11% 29.40 in - SW 8.1 mph - N/A   Clear
2:35 PM 85.3 °F - 24.8 °F 11% 29.40 in - West 10.4 mph - N/A   Clear
2:55 PM 85.3 °F - 24.3 °F 11% 29.39 in - West 5.8 mph - N/A   Clear
3:15 PM 85.8 °F - 23.5 °F 10% 29.39 in - West 8.1 mph - N/A   Clear
3:35 PM 85.5 °F - 24.8 °F 11% 29.40 in - SW 10.4 mph - N/A   Clear
3:55 PM 85.3 °F - 23.0 °F 10% 29.40 in - WSW 8.1 mph - N/A   Clear
4:15 PM 84.4 °F - 24.4 °F 11% 29.40 in - SW 5.8 mph - N/A   Clear
4:35 PM 84.6 °F - 25.3 °F 12% 29.41 in - WSW 5.8 mph - N/A   Clear
4:55 PM 82.8 °F - 26.4 °F 13% 29.43 in - NNW 3.5 mph - N/A   Clear
5:15 PM 80.1 °F - 27.9 °F 15% 29.44 in 10.0 mi NNE 6.9 mph - N/A   Clear
5:35 PM 71.8 °F - 32.4 °F 23% 29.49 in 3.0 mi NNE 29.9 mph 47.2 mph N/A   Haze
5:55 PM 61.0 °F - 35.6 °F 39% 29.54 in 5.0 mi NNE 23.0 mph 34.5 mph N/A   Haze
6:15 PM 55.9 °F - 34.7 °F 45% 29.58 in 7.0 mi NNE 24.2 mph 36.8 mph N/A   Clear
6:35 PM 52.5 °F - 33.3 °F 48% 29.63 in 10.0 mi NNE 21.9 mph 35.7 mph N/A   Clear
6:55 PM 50.5 °F - 32.5 °F 50% 29.67 in 10.0 mi North 24.2 mph 32.2 mph N/A   Clear
7:15 PM 47.1 °F - 30.2 °F 52% 29.74 in 7.0 mi North 23.0 mph 40.3 mph N/A   Clear
7:35 PM 44.2 °F 34.2 °F 27.5 °F 52% 29.78 in 7.0 mi North 29.9 mph 41.4 mph N/A   Clear
7:55 PM 42.3 °F 31.8 °F 25.7 °F 52% 29.80 in - North 28.8 mph 38.0 mph N/A   Unknown
8:15 PM 40.6 °F 30.0 °F 23.5 °F 51% 29.81 in - North 26.5 mph 43.7 mph N/A   Unknown
8:35 PM 39.4 °F 28.3 °F 22.6 °F 51% 29.84 in - North 26.5 mph 40.3 mph N/A   Unknown
8:55 PM 37.6 °F 26.6 °F 20.8 °F 51% 29.88 in - North 23.0 mph 44.9 mph N/A   Unknown
9:15 PM 36.0 °F 22.8 °F 19.4 °F 51% 29.91 in - North 31.1 mph 43.7 mph N/A   Unknown
9:35 PM 34.7 °F 21.8 °F 19.0 °F 53% 29.93 in 10.0 mi North 27.6 mph 39.1 mph N/A   Scattered Clouds
9:55 PM 33.8 °F 20.3 °F 18.3 °F 53% 29.95 in 10.0 mi North 28.8 mph 40.3 mph N/A   Clear
10:15 PM 33.4 °F 20.6 °F 17.8 °F 53% 29.96 in 10.0 mi North 25.3 mph 35.7 mph N/A   Clear
10:35 PM 32.9 °F 19.8 °F 17.4 °F 53% 29.98 in 10.0 mi North 25.3 mph 34.5 mph N/A   Clear
10:55 PM 32.4 °F 19.7 °F 17.2 °F 54% 29.98 in 10.0 mi North 23.0 mph 31.1 mph N/A   Clear
11:15 PM 32.2 °F 20.0 °F 17.2 °F 54% 29.99 in 10.0 mi North 20.7 mph 34.5 mph N/A   Clear
11:35 PM 32.0 °F 18.6 °F 16.3 °F 52% 30.00 in 10.0 mi North 25.3 mph 38.0 mph N/A   Clear
11:55 PM 32.0 °F 19.2 °F 16.5 °F 53% 30.01 in - North 23.0 mph 31.1 mph N/A   Clear